SCP
0 0 0 -0 -0 -0 -0 -0 -0 -0 -0 -0 -0 -0 0 -0 -0 0 0 0 0 0 -0 0 0 0 0 0 0 0 0 0 0 0 0 0 0 0 0 0 0 0 0 0 0 0 0 0 0 0 0 0 0 0
0 -0 -0 -0 -0 -0 -0 0 0 -0 -0 -0 -0 -0 -0 0 -0 0 0 0 0 0 0 0 0 0 0 0 0 0 0 0 0 0 -0 0 0 0 0 0 0 0 0 0 0 0 0 0 0 0 0 0 0 0
-0 -0 -0 -0 -0 -0 -0 -0 -0 0 -0 0 -0 -0 -0 -0 0 -0 0 0 0 -0 -0 -0 -0 0 0 0 0 0 0 -0 -0 -0 0 0 0 0 0 0 -0 0 -0 -0 0 0 0 0 0 0 0 0 0 0
-0 -0 -0 -0 -0 -0 -0 -0 -0 -0 -0 -0 -0 -0 -0 0 0 -0 0 0 0 0 -0 -0 0 0 0 -0 0 -0 0 0 0 -0 0 0 0 0 0 0 -0 -0 0 0 0 0 0 0 0 0 0 0 0 0
-0 -0 -0 -0 -0 -0 -0 -0 -0 -0 -0 -0 -0 -0 -0 0 -0 -0 0 0 0 0 0 0 0 0 0 0 0 0 0 0 0 0 0 0 0 0 0 0 0 0 -0 0 0 0 0 0 0 0 0 0 0 -0
-0 -0 -0 -0 -0 -0 0 -0 -0 -0 -0 -0 -0 -0 0 -0 -0 0 -0 -0 -0 0 -0 -0 0 0 0 0 0 0 0 0 0 0 0 0 0 0 0 0 0 0 0 0 0 0 0 -0 0 0 0 0 0 -0
-0 -0 -0 -0 -0 0 0 0 -0 -0 -0 -0 -0 -0 0 -0 -0 0 0 -0 0 0 0 0 0 0 0 0 0 0 0 0 0 0 -0 0 0 0 0 0 -0 0 0 0 0 0 0 0 0 0 0 0 0 0
-0 -0 -0 -0 -0 -0 0 -0 -0 -0 -0 0 0 0 0 0 0 0 0 0 0 0 0 0 0 0 0 0 0 0 0 0 0 0 0 0 0 0 0 0 0 0 0 0 0 0 0 0 0 0 0 0 0 0
-0 -0 -0 -0 -0 -0 0 -0 0 0 0 -0 -0 0 0 0 0 0 0 0 0 0 0 -0 0 0 0 0 0 0 0 0 0 0 0 0 0 0 0 0 0 0 0 0 0 0 0 0 0 0 0 0 0 0
0 -0 0 0 0 -0 0 -0 0 0 -0 0 0 0 0 0 -0 0 0 0 0 0 0 -0 0 0 0 0 0 0 0 0 0 0 0 0 0 0 0 0 0 0 0 0 0 0 0 0 0 0 0 0 0 0
-0 -0 0 -0 0 0 0 0 0 0 0 0 0 0 0 0 0 0 0 0 0 0 0 0 0 0 0 0 0 0 0 0 0 0 0 0 0 0 0 0 0 0 0 0 0 0 0 0 0 0 0 0 0 0
-0 -0 0 -0 0 0 -0 0 0 0 0 0 0 0 0 0 0 0 0 0 0 0 0 0 0 0 0 0 0 0 0 0 0 0 0 0 0 0 0 0 0 0 0 0 0 0 0 0 0 0 0 0 0 0
-0 0 0 -0 -0 0 0 0 0 0 0 0 0 0 0 0 0 0 0 0 0 0 0 0 0 0 0 0 0 0 0 0 0 0 0 0 0 0 0 0 0 0 0 0 0 0 0 0 0 0 0 0 0 0
-0 -0 0 0 0 0 0 0 0 0 0 0 0 0 0 0 0 0 0 0 0 0 0 0 0 0 0 0 0 0 0 0 0 0 -0 0 0 0 0 0 0 0 0 0 0 0 0 0 0 0 0 0 0 0
0 0 0 0 0 0 0 0 0 0 0 0 0 0 0 0 0 0 0 0 0 0 0 0 0 0 0 0 0 0 0 0 0 0 0 0 0 0 0 0 0 0 0 0 0 0 0 0 0 0 0 0 0 0
0 0 0 0 0 0 0 0 0 0 0 0 0 0 0 0 0 0 0 0 0 0 0 0 0 0 0 0 0 0 0 0 0 0 0 0 0 0 0 0 0 0 0 0 0 0 0 0 0 0 0 0 0 0
0 0 0 -0 -0 0 0 0 0 0 0 0 0 0 0 0 0 0 0 0 0 0 0 0 0 0 0 0 0 0 0 0 0 0 0 0 0 0 0 0 0 0 0 0 0 0 0 0 0 0 0 0 0 0
0 -0 -0 0 0 0 0 0 0 -0 -0 0 0 0 0 0 0 0 0 0 0 0 0 0 0 0 0 0 0 0 0 0 0 0 0 0 0 0 0 0 0 0 0 0 0 0 0 0 0 0 0 0 0 0
0 -0 -0 0 0 0 0 0 0 0 0 0 0 0 0 0 0 0 0 0 0 0 0 0 0 0 0 0 0 0 0 0 0 0 0 0 0 0 0 0 0 0 0 0 0 0 0 0 0 0 0 0 0 0
-0 0 0 0 0 0 0 0 0 0 0 0 0 0 0 0 0 0 0 0 0 0 0 0 0 0 0 0 0 0 0 0 0 0 0 0 0 0 0 0 0 0 0 0 0 0 0 0 0 0 0 0 0 0
0 0 0 0 0 -0 -0 -0 0 0 0 0 0 0 0 0 0 0 0 0 0 0 0 0 0 0 0 0 0 0 0 0 0 0 0 0 0 0 0 0 0 0 0 0 0 0 0 0 0 0 0 0 0 0
0 0 0 0 0 -0 -0 0 -0 0 0 0 0 0 0 0 0 0 0 0 0 0 0 0 0 0 0 0 -0 -0 -0 -0 0 0 0 0 0 0 0 0 0 0 0 0 0 0 0 0 0 0 0 0 0 0
0 0 0 0 -0 0 -0 -0 0 0 -0 0 0 0 0 0 0 0 0 0 0 0 0 -0 -0 -0 -0 -0 -0 0 0 0 0 0 0 0 0 0 0 0 0 0 0 0 0 0 0 0 0 0 0 0 0 0
0 0 0 0 0 0 0 0 0 0 0 0 0 0 0 0 0 0 0 0 0 0 -0 0 0 -0 0 0 0 0 0 0 0 0 0 0 0 0 0 0 0 0 0 0 0 0 0 0 0 0 0 0 0 0
0 0 0 0 0 0 0 0 0 0 0 0 0 0 0 0 0 0 -0 0 0 0 -0 -0 0 0 0 0 0 0 0 0 0 0 0 0 0 0 0 0 0 0 0 0 0 0 0 0 0 0 0 0 0 0
-0 0 0 0 0 0 0 0 0 0 0 0 0 0 0 0 0 0 0 0 0 -0 0 0 0 0 0 0 0 0 0 0 0 0 0 0 0 0 0 0 0 0 0 0 0 0 0 0 0 0 0 0 0 0
0 0 0 0 0 0 0 0 0 0 0 0 -0 -0 -0 0 0 -0 -0 -0 0 0 0 0 0 0 0 0 0 0 0 0 0 0 0 0 0 0 0 0 0 0 0 0 0 0 0 0 0 0 0 0 0 0
0 0 0 0 0 0 0 0 0 0 -0 -0 0 0 0 -0 0 0 0 0 0 0 0 0 0 0 0 0 0 0 0 0 0 0 0 0 0 0 0 0 0 0 0 0 0 0 0 0 0 0 0 0 0 0
0 0 0 0 -0 -0 0 0 0 -0 -0 -0 0 0 0 0 0 0 0 0 0 0 0 0 0 0 0 0 0 0 0 0 0 0 0 0 0 0 0 0 0 0 0 0 0 0 0 0 0 0 0 0 0 0
0 0 0 0 0 0 0 0 0 0 -0 -0 -0 -0 0 0 0 0 0 0 0 0 0 0 0 0 0 0 0 0 0 0 0 0 0 0 0 0 0 0 0 0 0 0 0 0 0 0 0 0 0 0 0 0
0 0 0 0 0 0 -0 -0 -0 -0 -0 0 0 0 0 0 0 0 0 0 0 0 0 0 0 0 0 0 0 0 0 0 0 0 0 0 0 0 0 0 0 0 0 0 0 0 0 0 0 0 0 0 0 0
0 0 0 0 0 0 0 0 0 0 0 0 0 0 0 0 0 0 0 0 0 0 0 0 0 0 0 0 0 0 0 0 0 0 0 0 0 0 0 0 0 0 0 0 0 0 0 0 0 0 0 0 0 0
0 -0 -0 0 0 0 0 0 0 0 0 0 0 0 0 0 0 0 0 0 0 0 0 0 0 0 0 0 0 0 0 0 0 0 0 0 0 0 0 0 0 0 0 0 0 0 0 0 0 0 0 0 0 0
Wind_Speed_500mb
60 61 64 68 71 72 72 71 73 75 75 80 75 69 64 58 57 62 59 49 50 28 43 34 35 35 28 21 9 4 5 2 7 7 8 12 10 11 15 14 13 26 20 16 20 17 23 6 7 9 23 36 25 21
64 67 69 70 72 73 74 75 77 76 68 64 75 79 71 64 61 58 54 49 47 39 27 21 36 51 48 46 23 10 10 4 7 8 12 5 10 5 10 5 8 5 19 14 18 16 11 14 36 32 33 33 19 21
67 69 72 66 65 70 74 74 73 76 58 53 62 81 74 65 63 64 52 43 39 41 43 51 54 47 37 42 35 15 12 12 10 15 9 8 9 4 5 8 2 7 30 21 5 16 17 32 26 35 29 28 22 22
69 65 65 72 67 48 49 49 47 51 43 44 48 77 74 67 62 62 62 47 43 11 12 31 33 40 45 45 34 42 46 53 38 33 11 6 4 13 5 11 11 7 7 9 14 5 22 38 17 37 34 29 26 25
62 62 63 50 39 41 41 37 31 30 39 43 58 74 71 64 59 58 56 54 53 44 4 12 37 43 35 29 43 50 42 37 34 7 8 6 5 2 6 7 11 8 7 4 7 18 33 22 33 32 29 26 26 25
58 55 47 40 43 45 39 33 29 27 32 50 66 70 66 63 58 47 28 61 64 53 15 7 14 18 23 49 43 40 51 36 16 5 7 12 13 4 4 3 19 21 30 40 12 21 25 29 33 32 28 28 27 30
35 38 38 45 47 41 32 26 26 33 41 55 64 64 62 60 61 61 17 14 58 58 8 6 8 10 29 31 37 32 33 17 15 7 8 10 10 8 3 2 10 20 26 25 31 33 15 36 22 29 27 27 23 26
30 40 49 42 28 26 30 33 32 43 46 57 60 59 57 57 54 54 45 7 47 49 8 6 7 7 23 12 9 17 11 16 15 10 8 6 9 6 3 11 19 27 20 26 31 25 19 18 23 28 28 26 24 25
38 33 21 25 29 25 37 41 39 50 54 55 52 46 42 43 26 40 56 20 53 20 15 9 5 4 21 13 13 17 16 4 9 5 7 6 4 3 7 16 21 24 21 25 25 16 19 23 23 26 25 25 20 21
23 20 29 29 19 36 49 49 46 50 68 62 57 26 11 32 39 49 41 20 15 16 10 8 12 7 12 16 14 10 9 6 7 10 5 7 6 12 13 15 15 17 20 23 21 21 21 20 16 21 22 20 19 19
9 13 13 23 35 53 54 53 55 62 78 59 17 11 50 60 35 11 13 13 13 8 17 17 24 8 9 8 6 12 5 5 6 7 10 11 6 7 12 17 17 16 16 19 17 14 13 12 21 22 22 22 23 23
21 18 20 35 59 50 62 58 70 68 37 24 42 56 40 10 5 7 10 9 12 9 8 12 12 9 7 3 2 6 5 5 4 15 6 7 7 13 12 15 16 16 15 20 20 20 22 23 23 25 26 27 28 29
31 42 48 55 51 52 55 60 61 53 59 59 19 9 9 7 10 9 11 8 7 5 4 5 8 8 5 3 2 4 3 5 3 5 5 7 21 19 18 17 19 19 20 22 25 24 26 27 28 29 31 30 30 31
38 46 60 67 62 63 60 59 79 54 15 9 5 8 6 7 8 8 8 8 8 10 15 14 9 4 3 3 2 4 4 4 4 6 8 13 23 20 21 20 19 23 24 27 29 33 36 37 37 34 34 30 29 30
44 63 60 58 70 78 73 54 24 9 11 11 11 8 8 7 11 6 6 10 10 9 9 15 9 3 3 3 1 2 4 3 9 7 7 22 21 21 22 22 25 27 27 28 30 34 35 34 35 36 31 30 29 28
33 55 61 49 41 33 24 11 2 13 12 12 15 7 5 13 13 17 19 20 9 7 6 5 5 5 4 2 2 9 10 9 6 10 25 24 24 25 25 25 27 28 30 32 31 31 32 31 30 29 26 23 20 17
25 23 24 17 12 13 17 8 12 17 12 9 8 17 13 22 19 15 15 11 8 7 4 3 6 9 1 5 6 9 7 11 25 27 26 26 27 27 29 30 30 30 30 29 29 27 28 28 27 23 24 22 18 19
30 34 35 23 15 7 15 18 13 13 14 18 11 21 23 22 21 20 16 23 13 8 8 5 1 8 9 6 7 11 27 33 33 30 29 29 30 29 28 29 27 25 25 24 24 24 23 19 17 16 15 15 16 14
24 20 20 20 21 11 10 13 14 11 16 15 17 17 19 22 23 23 21 20 24 18 11 9 10 7 6 12 24 27 26 28 30 29 30 29 29 28 27 25 24 23 22 19 15 13 13 15 14 10 7 4 5 4
23 26 22 18 11 11 11 11 12 13 8 11 13 20 15 15 18 25 28 28 24 14 14 9 8 22 26 28 27 29 29 29 31 31 27 28 26 24 20 17 17 18 16 16 15 11 10 10 8 1 7 9 7 3
22 25 21 19 22 20 13 9 11 16 14 12 15 17 17 27 30 25 22 21 24 13 9 18 26 26 26 30 32 32 28 24 22 23 24 22 17 17 16 15 13 10 9 8 7 7 7 7 5 3 1 2 3 7
16 15 10 15 13 12 14 13 19 18 10 18 11 10 12 13 14 19 23 24 13 19 15 23 26 29 31 29 26 25 25 25 27 27 25 22 17 15 13 10 8 9 8 7 5 2 2 3 5 4 6 5 2 9
16 9 10 10 11 10 13 20 4 12 8 11 12 7 7 8 8 10 12 13 12 20 21 24 26 28 31 30 31 30 25 23 22 20 18 16 15 14 12 11 9 8 6 7 5 2 11 5 2 2 7 6 9 17
7 9 9 8 11 9 10 3 9 9 13 7 6 8 6 8 13 11 8 8 13 18 22 24 24 27 26 24 24 22 19 18 19 18 14 12 11 11 10 9 7 6 6 4 1 1 2 8 4 5 9 2 12 9
6 15 9 9 7 7 8 7 4 7 8 11 7 8 6 7 5 6 6 12 16 16 16 14 16 19 20 19 17 17 18 12 12 14 14 11 8 7 6 5 5 5 6 2 2 7 12 3 5 8 6 7 16 11
12 18 11 7 4 4 6 8 6 9 8 6 7 10 6 5 7 11 6 21 20 19 17 17 18 20 19 15 15 12 11 12 8 10 9 8 8 6 2 1 3 8 15 0 4 3 9 16 9 14 5 14 22 19
8 9 11 10 6 8 10 16 18 10 7 6 7 6 5 6 8 6 22 24 24 21 20 18 15 18 16 14 12 10 10 13 14 5 3 4 3 2 8 10 10 14 10 6 4 5 8 9 8 11 10 10 12 20
10 11 7 10 16 21 8 7 7 6 6 4 7 6 5 6 6 12 20 30 28 26 25 25 23 20 18 15 13 13 12 11 11 11 13 16 16 11 8 5 4 7 11 10 10 11 8 9 10 8 11 16 17 17
11 12 14 12 14 17 19 11 8 7 9 5 5 6 7 9 21 32 28 26 24 22 21 19 18 18 18 15 13 8 5 10 7 7 7 5 6 16 17 10 11 14 11 12 17 18 15 16 15 14 15 17 17 18
7 8 11 15 10 10 15 14 13 10 17 23 30 51 49 40 33 28 27 24 22 21 21 19 16 12 11 6 5 4 6 6 3 6 5 6 13 17 15 14 15 16 15 13 11 11 16 17 17 17 21 20 17 18
10 10 12 16 12 20 31 39 44 40 39 40 33 41 30 21 25 29 24 19 18 18 17 16 15 12 10 10 5 4 13 7 7 6 8 10 12 14 15 16 15 15 14 14 14 14 15 15 14 14 17 21 24 26
8 8 13 10 15 19 2 21 27 33 27 29 29 31 22 16 11 5 24 24 13 16 17 10 6 6 4 3 2 3 5 7 9 11 13 14 16 15 15 14 13 13 14 14 14 16 17 19 20 22 23 25 27 30
41 43 43 29 15 14 10 10 10 12 13 10 8 10 11 8 9 9 25 26 22 18 18 15 10 6 3 3 4 5 7 10 12 14 13 12 11 11 12 13 14 15 16 18 18 19 21 23 25 27 29 31 32 34
Wind_Direction_500mb
282 283 283 282 281 278 276 272 270 271 265 251 236 232 230 221 220 222 229 224 222 245 266 262 258 263 280 279 272 18 140 196 151 192 242 243 257 251 250 210 220 189 191 205 225 244 249 245 269 176 92 66 56 34
287 288 287 283 280 277 275 273 271 274 276 253 238 218 221 214 215 217 225 218 224 229 250 287 267 258 258 265 282 252 275 100 235 210 233 276 251 291 305 272 80 245 208 200 190 214 298 91 101 90 92 98 59 42
289 287 283 291 294 283 275 273 270 270 257 249 231 208 210 208 209 211 213 213 217 236 268 265 260 253 256 254 255 262 282 246 218 281 304 236 262 314 281 275 97 302 300 226 309 254 203 111 113 99 89 80 66 49
287 287 287 291 287 282 278 271 269 263 244 215 215 198 202 203 205 207 207 207 211 189 238 266 263 258 256 241 248 240 256 271 284 301 282 277 249 11 295 308 311 214 349 259 228 89 44 52 55 79 75 67 62 57
287 288 294 296 281 277 279 258 263 251 213 213 197 191 196 196 199 206 214 211 214 206 278 293 299 264 243 233 237 239 247 251 269 263 257 245 285 186 284 280 283 352 140 248 77 45 103 100 67 64 67 59 53 59
290 290 280 281 286 282 261 247 241 218 200 181 184 185 188 190 191 193 220 230 219 221 266 294 308 286 257 239 235 236 227 242 238 187 280 276 237 258 274 340 32 36 42 42 44 14 58 81 65 47 50 40 45 57
280 280 281 282 281 277 226 216 215 194 182 177 182 183 184 188 192 190 191 236 216 206 245 272 250 252 218 211 217 216 207 208 195 189 242 255 293 216 291 280 81 37 17 42 27 18 53 33 36 26 30 29 50 55
271 269 280 276 285 260 216 205 196 181 173 175 178 182 187 191 199 209 208 251 182 173 192 253 272 166 163 165 150 175 187 184 209 203 218 256 229 221 152 73 41 17 11 32 15 24 54 23 30 29 29 34 48 45
272 280 282 269 278 238 191 182 179 173 166 164 168 176 182 181 169 198 200 188 166 167 184 227 255 174 175 176 171 172 163 179 185 229 207 180 195 85 48 34 37 23 12 352 355 46 34 39 33 28 27 31 48 48
295 303 287 274 237 183 171 169 165 162 167 160 165 141 120 149 150 125 138 151 165 222 243 250 233 216 194 187 179 165 176 199 189 213 139 190 91 91 81 73 49 22 14 12 21 18 18 24 34 48 43 46 56 65
335 328 339 147 152 152 157 161 165 152 149 147 147 133 136 143 131 123 147 177 175 197 213 227 223 172 203 202 186 206 201 195 230 158 197 172 110 88 75 58 45 36 41 45 65 56 56 71 73 79 72 73 79 86
25 70 101 137 137 138 154 154 148 142 140 129 124 130 123 141 167 181 174 171 201 199 165 181 145 163 119 141 223 213 210 184 266 149 220 113 97 96 76 64 56 54 65 73 78 80 80 85 83 87 87 87 91 94
77 107 113 119 125 140 151 150 147 139 125 117 105 107 175 173 204 190 145 171 146 91 123 121 111 83 108 63 101 305 200 217 168 202 67 71 109 88 87 84 71 69 72 77 78 83 87 92 98 90 96 101 107 108
100 116 129 127 130 119 132 139 126 119 79 90 101 86 5 99 55 37 23 49 67 67 100 95 81 83 104 141 6 263 53 272 225 206 81 103 96 88 82 90 92 85 89 90 92 94 93 97 99 103 102 105 107 102
94 125 127 121 130 126 124 123 111 86 64 61 34 57 69 87 58 70 72 96 74 98 121 116 91 165 72 100 6 63 198 179 33 56 82 99 105 108 103 101 102 101 102 98 98 101 102 105 104 101 101 105 105 104
96 136 125 126 122 113 105 136 195 73 62 55 40 88 28 117 86 48 61 80 63 94 93 80 115 129 92 84 173 7 303 50 63 88 104 104 102 106 108 110 110 108 104 104 104 105 105 100 99 99 98 92 91 86
146 155 156 137 141 121 132 112 55 54 64 63 66 30 65 66 61 52 33 11 20 338 64 50 51 43 283 102 75 6 24 96 102 100 102 110 111 111 111 107 107 108 105 102 101 96 89 82 78 76 73 62 55 53
129 109 123 155 159 121 47 51 80 75 65 52 74 69 66 44 54 53 32 25 39 56 46 72 49 48 17 40 99 100 87 87 93 100 105 110 112 114 115 114 111 109 107 102 94 85 76 75 72 71 62 59 53 58
135 143 139 138 147 114 68 47 53 78 64 80 81 74 72 64 52 48 44 50 58 68 82 59 51 41 56 68 101 106 112 113 109 102 108 119 123 121 119 115 112 110 107 99 94 89 101 104 83 75 72 84 82 84
118 121 122 110 96 85 82 70 76 86 88 103 84 77 72 53 56 56 50 51 60 61 55 46 47 59 74 81 99 107 115 122 120 112 106 101 97 98 103 102 98 86 83 77 77 73 64 54 25 210 162 146 120 92
81 96 96 100 65 72 82 91 78 98 106 93 121 98 88 67 55 51 46 40 54 38 71 78 80 89 98 105 108 112 117 118 118 121 123 115 106 97 91 86 88 91 88 80 72 71 71 66 48 51 39 329 330 260
116 100 95 68 80 75 69 55 112 120 89 120 114 89 90 69 54 43 50 51 68 31 74 107 101 99 95 93 96 103 106 116 113 111 109 105 109 101 90 84 92 87 81 71 69 109 100 215 149 6 0 29 216 245
111 97 69 63 85 79 119 160 110 150 109 125 128 87 69 72 64 76 77 54 75 66 86 97 105 107 103 101 101 95 94 99 100 100 97 97 97 96 93 83 75 76 70 46 60 33 271 6 294 17 11 35 339 341
94 71 61 66 72 98 126 103 112 90 115 128 99 94 84 102 100 72 74 72 97 107 107 109 111 108 103 98 92 89 88 96 97 92 89 95 93 82 79 71 64 83 94 75 93 237 310 309 66 18 306 8 301 243
102 20 41 75 95 119 117 113 87 93 99 108 97 111 126 159 87 88 102 130 130 123 120 121 122 114 112 109 101 89 91 93 99 91 76 75 86 90 79 76 37 28 101 346 306 320 304 290 331 257 255 264 257 250
73 23 27 37 65 103 117 118 114 109 101 91 88 115 168 106 91 100 102 141 138 133 127 120 122 119 107 108 115 99 81 91 103 98 69 76 90 81 59 37 330 318 326 282 186 218 300 303 281 296 309 312 318 325
75 61 49 31 4 101 96 68 74 75 84 92 116 136 127 95 95 90 115 130 130 126 118 108 115 124 124 117 123 119 108 129 155 161 82 53 52 140 177 175 204 261 311 320 333 239 228 272 291 301 298 300 290 290
70 35 76 55 65 39 65 58 50 58 80 54 90 61 65 66 100 126 126 132 145 140 144 135 125 130 128 123 108 88 78 66 56 47 33 17 10 8 5 360 327 285 305 324 310 311 300 297 296 287 285 286 288 304
71 95 85 40 62 55 35 31 56 51 343 327 108 91 90 77 116 120 129 137 131 124 117 116 115 119 114 114 130 131 118 131 130 63 69 59 354 315 330 336 331 330 331 334 333 332 325 318 308 306 305 301 293 298
79 65 91 53 54 55 32 37 82 77 57 87 99 110 101 94 103 112 116 122 129 132 133 123 116 116 106 101 94 42 48 56 84 138 135 201 259 296 310 320 325 325 331 323 314 306 324 326 328 340 333 328 318 296
93 89 80 69 81 99 93 84 85 86 91 101 111 116 119 114 102 110 116 138 142 115 116 118 112 106 106 120 135 33 328 11 356 344 331 317 314 312 321 320 325 325 326 328 329 328 326 327 326 315 314 307 310 314
56 95 119 110 129 155 146 91 86 98 102 96 102 113 117 111 96 119 126 116 127 153 132 132 170 143 118 122 146 221 290 330 338 340 335 329 327 331 329 331 333 335 336 335 334 333 333 331 329 324 320 318 314 315
92 100 108 104 127 153 188 144 109 110 93 87 64 59 55 70 101 168 159 148 134 171 191 195 182 163 134 71 35 7 351 341 339 340 341 342 344 343 342 346 350 348 345 342 339 335 332 330 328 326 323 320 319 319
Wind_Speed_850mb
60 61 64 68 71 72 72 71 73 75 75 80 75 69 64 58 57 62 59 49 50 28 43 34 35 35 28 21 9 4 5 2 7 7 8 12 10 11 15 14 13 26 20 16 20 17 23 6 7 9 23 36 25 21
64 67 69 70 72 73 74 75 77 76 68 64 75 79 71 64 61 58 54 49 47 39 27 21 36 51 48 46 23 10 10 4 7 8 12 5 10 5 10 5 8 5 19 14 18 16 11 14 36 32 33 33 19 21
67 69 72 66 65 70 74 74 73 76 58 53 62 81 74 65 63 64 52 43 39 41 43 51 54 47 37 42 35 15 12 12 10 15 9 8 9 4 5 8 2 7 30 21 5 16 17 32 26 35 29 28 22 22
69 65 65 72 67 48 49 49 47 51 43 44 48 77 74 67 62 62 62 47 43 11 12 31 33 40 45 45 34 42 46 53 38 33 11 6 4 13 5 11 11 7 7 9 14 5 22 38 17 37 34 29 26 25
62 62 63 50 39 41 41 37 31 30 39 43 58 74 71 64 59 58 56 54 53 44 4 12 37 43 35 29 43 50 42 37 34 7 8 6 5 2 6 7 11 8 7 4 7 18 33 22 33 32 29 26 26 25
58 55 47 40 43 45 39 33 29 27 32 50 66 70 66 63 58 47 28 61 64 53 15 7 14 18 23 49 43 40 51 36 16 5 7 12 13 4 4 3 19 21 30 40 12 21 25 29 33 32 28 28 27 30
35 38 38 45 47 41 32 26 26 33 41 55 64 64 62 60 61 61 17 14 58 58 8 6 8 10 29 31 37 32 33 17 15 7 8 10 10 8 3 2 10 20 26 25 31 33 15 36 22 29 27 27 23 26
30 40 49 42 28 26 30 33 32 43 46 57 60 59 57 57 54 54 45 7 47 49 8 6 7 7 23 12 9 17 11 16 15 10 8 6 9 6 3 11 19 27 20 26 31 25 19 18 23 28 28 26 24 25
38 33 21 25 29 25 37 41 39 50 54 55 52 46 42 43 26 40 56 20 53 20 15 9 5 4 21 13 13 17 16 4 9 5 7 6 4 3 7 16 21 24 21 25 25 16 19 23 23 26 25 25 20 21
23 20 29 29 19 36 49 49 46 50 68 62 57 26 11 32 39 49 41 20 15 16 10 8 12 7 12 16 14 10 9 6 7 10 5 7 6 12 13 15 15 17 20 23 21 21 21 20 16 21 22 20 19 19
9 13 13 23 35 53 54 53 55 62 78 59 17 11 50 60 35 11 13 13 13 8 17 17 24 8 9 8 6 12 5 5 6 7 10 11 6 7 12 17 17 16 16 19 17 14 13 12 21 22 22 22 23 23
21 18 20 35 59 50 62 58 70 68 37 24 42 56 40 10 5 7 10 9 12 9 8 12 12 9 7 3 2 6 5 5 4 15 6 7 7 13 12 15 16 16 15 20 20 20 22 23 23 25 26 27 28 29
31 42 48 55 51 52 55 60 61 53 59 59 19 9 9 7 10 9 11 8 7 5 4 5 8 8 5 3 2 4 3 5 3 5 5 7 21 19 18 17 19 19 20 22 25 24 26 27 28 29 31 30 30 31
38 46 60 67 62 63 60 59 79 54 15 9 5 8 6 7 8 8 8 8 8 10 15 14 9 4 3 3 2 4 4 4 4 6 8 13 23 20 21 20 19 23 24 27 29 33 36 37 37 34 34 30 29 30
44 63 60 58 70 78 73 54 24 9 11 11 11 8 8 7 11 6 6 10 10 9 9 15 9 3 3 3 1 2 4 3 9 7 7 22 21 21 22 22 25 27 27 28 30 34 35 34 35 36 31 30 29 28
33 55 61 49 41 33 24 11 2 13 12 12 15 7 5 13 13 17 19 20 9 7 6 5 5 5 4 2 2 9 10 9 6 10 25 24 24 25 25 25 27 28 30 32 31 31 32 31 30 29 26 23 20 17
25 23 24 17 12 13 17 8 12 17 12 9 8 17 13 22 19 15 15 11 8 7 4 3 6 9 1 5 6 9 7 11 25 27 26 26 27 27 29 30 30 30 30 29 29 27 28 28 27 23 24 22 18 19
30 34 35 23 15 7 15 18 13 13 14 18 11 21 23 22 21 20 16 23 13 8 8 5 1 8 9 6 7 11 27 33 33 30 29 29 30 29 28 29 27 25 25 24 24 24 23 19 17 16 15 15 16 14
24 20 20 20 21 11 10 13 14 11 16 15 17 17 19 22 23 23 21 20 24 18 11 9 10 7 6 12 24 27 26 28 30 29 30 29 29 28 27 25 24 23 22 19 15 13 13 15 14 10 7 4 5 4
23 26 22 18 11 11 11 11 12 13 8 11 13 20 15 15 18 25 28 28 24 14 14 9 8 22 26 28 27 29 29 29 31 31 27 28 26 24 20 17 17 18 16 16 15 11 10 10 8 1 7 9 7 3
22 25 21 19 22 20 13 9 11 16 14 12 15 17 17 27 30 25 22 21 24 13 9 18 26 26 26 30 32 32 28 24 22 23 24 22 17 17 16 15 13 10 9 8 7 7 7 7 5 3 1 2 3 7
16 15 10 15 13 12 14 13 19 18 10 18 11 10 12 13 14 19 23 24 13 19 15 23 26 29 31 29 26 25 25 25 27 27 25 22 17 15 13 10 8 9 8 7 5 2 2 3 5 4 6 5 2 9
16 9 10 10 11 10 13 20 4 12 8 11 12 7 7 8 8 10 12 13 12 20 21 24 26 28 31 30 31 30 25 23 22 20 18 16 15 14 12 11 9 8 6 7 5 2 11 5 2 2 7 6 9 17
7 9 9 8 11 9 10 3 9 9 13 7 6 8 6 8 13 11 8 8 13 18 22 24 24 27 26 24 24 22 19 18 19 18 14 12 11 11 10 9 7 6 6 4 1 1 2 8 4 5 9 2 12 9
6 15 9 9 7 7 8 7 4 7 8 11 7 8 6 7 5 6 6 12 16 16 16 14 16 19 20 19 17 17 18 12 12 14 14 11 8 7 6 5 5 5 6 2 2 7 12 3 5 8 6 7 16 11
12 18 11 7 4 4 6 8 6 9 8 6 7 10 6 5 7 11 6 21 20 19 17 17 18 20 19 15 15 12 11 12 8 10 9 8 8 6 2 1 3 8 15 0 4 3 9 16 9 14 5 14 22 19
8 9 11 10 6 8 10 16 18 10 7 6 7 6 5 6 8 6 22 24 24 21 20 18 15 18 16 14 12 10 10 13 14 5 3 4 3 2 8 10 10 14 10 6 4 5 8 9 8 11 10 10 12 20
10 11 7 10 16 21 8 7 7 6 6 4 7 6 5 6 6 12 20 30 28 26 25 25 23 20 18 15 13 13 12 11 11 11 13 16 16 11 8 5 4 7 11 10 10 11 8 9 10 8 11 16 17 17
11 12 14 12 14 17 19 11 8 7 9 5 5 6 7 9 21 32 28 26 24 22 21 19 18 18 18 15 13 8 5 10 7 7 7 5 6 16 17 10 11 14 11 12 17 18 15 16 15 14 15 17 17 18
7 8 11 15 10 10 15 14 13 10 17 23 30 51 49 40 33 28 27 24 22 21 21 19 16 12 11 6 5 4 6 6 3 6 5 6 13 17 15 14 15 16 15 13 11 11 16 17 17 17 21 20 17 18
10 10 12 16 12 20 31 39 44 40 39 40 33 41 30 21 25 29 24 19 18 18 17 16 15 12 10 10 5 4 13 7 7 6 8 10 12 14 15 16 15 15 14 14 14 14 15 15 14 14 17 21 24 26
8 8 13 10 15 19 2 21 27 33 27 29 29 31 22 16 11 5 24 24 13 16 17 10 6 6 4 3 2 3 5 7 9 11 13 14 16 15 15 14 13 13 14 14 14 16 17 19 20 22 23 25 27 30
41 43 43 29 15 14 10 10 10 12 13 10 8 10 11 8 9 9 25 26 22 18 18 15 10 6 3 3 4 5 7 10 12 14 13 12 11 11 12 13 14 15 16 18 18 19 21 23 25 27 29 31 32 34
Wind_Direction_850mb
282 283 283 282 281 278 276 272 270 271 265 251 236 232 230 221 220 222 229 224 222 245 266 262 258 263 280 279 272 18 140 196 151 192 242 243 257 251 250 210 220 189 191 205 225 244 249 245 269 176 92 66 56 34
287 288 287 283 280 277 275 273 271 274 276 253 238 218 221 214 215 217 225 218 224 229 250 287 267 258 258 265 282 252 275 100 235 210 233 276 251 291 305 272 80 245 208 200 190 214 298 91 101 90 92 98 59 42
289 287 283 291 294 283 275 273 270 270 257 249 231 208 210 208 209 211 213 213 217 236 268 265 260 253 256 254 255 262 282 246 218 281 304 236 262 314 281 275 97 302 300 226 309 254 203 111 113 99 89 80 66 49
287 287 287 291 287 282 278 271 269 263 244 215 215 198 202 203 205 207 207 207 211 189 238 266 263 258 256 241 248 240 256 271 284 301 282 277 249 11 295 308 311 214 349 259 228 89 44 52 55 79 75 67 62 57
287 288 294 296 281 277 279 258 263 251 213 213 197 191 196 196 199 206 214 211 214 206 278 293 299 264 243 233 237 239 247 251 269 263 257 245 285 186 284 280 283 352 140 248 77 45 103 100 67 64 67 59 53 59
290 290 280 281 286 282 261 247 241 218 200 181 184 185 188 190 191 193 220 230 219 221 266 294 308 286 257 239 235 236 227 242 238 187 280 276 237 258 274 340 32 36 42 42 44 14 58 81 65 47 50 40 45 57
280 280 281 282 281 277 226 216 215 194 182 177 182 183 184 188 192 190 191 236 216 206 245 272 250 252 218 211 217 216 207 208 195 189 242 255 293 216 291 280 81 37 17 42 27 18 53 33 36 26 30 29 50 55
271 269 280 276 285 260 216 205 196 181 173 175 178 182 187 191 199 209 208 251 182 173 192 253 272 166 163 165 150 175 187 184 209 203 218 256 229 221 152 73 41 17 11 32 15 24 54 23 30 29 29 34 48 45
272 280 282 269 278 238 191 182 179 173 166 164 168 176 182 181 169 198 200 188 166 167 184 227 255 174 175 176 171 172 163 179 185 229 207 180 195 85 48 34 37 23 12 352 355 46 34 39 33 28 27 31 48 48
295 303 287 274 237 183 171 169 165 162 167 160 165 141 120 149 150 125 138 151 165 222 243 250 233 216 194 187 179 165 176 199 189 213 139 190 91 91 81 73 49 22 14 12 21 18 18 24 34 48 43 46 56 65
335 328 339 147 152 152 157 161 165 152 149 147 147 133 136 143 131 123 147 177 175 197 213 227 223 172 203 202 186 206 201 195 230 158 197 172 110 88 75 58 45 36 41 45 65 56 56 71 73 79 72 73 79 86
25 70 101 137 137 138 154 154 148 142 140 129 124 130 123 141 167 181 174 171 201 199 165 181 145 163 119 141 223 213 210 184 266 149 220 113 97 96 76 64 56 54 65 73 78 80 80 85 83 87 87 87 91 94
77 107 113 119 125 140 151 150 147 139 125 117 105 107 175 173 204 190 145 171 146 91 123 121 111 83 108 63 101 305 200 217 168 202 67 71 109 88 87 84 71 69 72 77 78 83 87 92 98 90 96 101 107 108
100 116 129 127 130 119 132 139 126 119 79 90 101 86 5 99 55 37 23 49 67 67 100 95 81 83 104 141 6 263 53 272 225 206 81 103 96 88 82 90 92 85 89 90 92 94 93 97 99 103 102 105 107 102
94 125 127 121 130 126 124 123 111 86 64 61 34 57 69 87 58 70 72 96 74 98 121 116 91 165 72 100 6 63 198 179 33 56 82 99 105 108 103 101 102 101 102 98 98 101 102 105 104 101 101 105 105 104
96 136 125 126 122 113 105 136 195 73 62 55 40 88 28 117 86 48 61 80 63 94 93 80 115 129 92 84 173 7 303 50 63 88 104 104 102 106 108 110 110 108 104 104 104 105 105 100 99 99 98 92 91 86
146 155 156 137 141 121 132 112 55 54 64 63 66 30 65 66 61 52 33 11 20 338 64 50 51 43 283 102 75 6 24 96 102 100 102 110 111 111 111 107 107 108 105 102 101 96 89 82 78 76 73 62 55 53
129 109 123 155 159 121 47 51 80 75 65 52 74 69 66 44 54 53 32 25 39 56 46 72 49 48 17 40 99 100 87 87 93 100 105 110 112 114 115 114 111 109 107 102 94 85 76 75 72 71 62 59 53 58
135 143 139 138 147 114 68 47 53 78 64 80 81 74 72 64 52 48 44 50 58 68 82 59 51 41 56 68 101 106 112 113 109 102 108 119 123 121 119 115 112 110 107 99 94 89 101 104 83 75 72 84 82 84
118 121 122 110 96 85 82 70 76 86 88 103 84 77 72 53 56 56 50 51 60 61 55 46 47 59 74 81 99 107 115 122 120 112 106 101 97 98 103 102 98 86 83 77 77 73 64 54 25 210 162 146 120 92
81 96 96 100 65 72 82 91 78 98 106 93 121 98 88 67 55 51 46 40 54 38 71 78 80 89 98 105 108 112 117 118 118 121 123 115 106 97 91 86 88 91 88 80 72 71 71 66 48 51 39 329 330 260
116 100 95 68 80 75 69 55 112 120 89 120 114 89 90 69 54 43 50 51 68 31 74 107 101 99 95 93 96 103 106 116 113 111 109 105 109 101 90 84 92 87 81 71 69 109 100 215 149 6 0 29 216 245
111 97 69 63 85 79 119 160 110 150 109 125 128 87 69 72 64 76 77 54 75 66 86 97 105 107 103 101 101 95 94 99 100 100 97 97 97 96 93 83 75 76 70 46 60 33 271 6 294 17 11 35 339 341
94 71 61 66 72 98 126 103 112 90 115 128 99 94 84 102 100 72 74 72 97 107 107 109 111 108 103 98 92 89 88 96 97 92 89 95 93 82 79 71 64 83 94 75 93 237 310 309 66 18 306 8 301 243
102 20 41 75 95 119 117 113 87 93 99 108 97 111 126 159 87 88 102 130 130 123 120 121 122 114 112 109 101 89 91 93 99 91 76 75 86 90 79 76 37 28 101 346 306 320 304 290 331 257 255 264 257 250
73 23 27 37 65 103 117 118 114 109 101 91 88 115 168 106 91 100 102 141 138 133 127 120 122 119 107 108 115 99 81 91 103 98 69 76 90 81 59 37 330 318 326 282 186 218 300 303 281 296 309 312 318 325
75 61 49 31 4 101 96 68 74 75 84 92 116 136 127 95 95 90 115 130 130 126 118 108 115 124 124 117 123 119 108 129 155 161 82 53 52 140 177 175 204 261 311 320 333 239 228 272 291 301 298 300 290 290
70 35 76 55 65 39 65 58 50 58 80 54 90 61 65 66 100 126 126 132 145 140 144 135 125 130 128 123 108 88 78 66 56 47 33 17 10 8 5 360 327 285 305 324 310 311 300 297 296 287 285 286 288 304
71 95 85 40 62 55 35 31 56 51 343 327 108 91 90 77 116 120 129 137 131 124 117 116 115 119 114 114 130 131 118 131 130 63 69 59 354 315 330 336 331 330 331 334 333 332 325 318 308 306 305 301 293 298
79 65 91 53 54 55 32 37 82 77 57 87 99 110 101 94 103 112 116 122 129 132 133 123 116 116 106 101 94 42 48 56 84 138 135 201 259 296 310 320 325 325 331 323 314 306 324 326 328 340 333 328 318 296
93 89 80 69 81 99 93 84 85 86 91 101 111 116 119 114 102 110 116 138 142 115 116 118 112 106 106 120 135 33 328 11 356 344 331 317 314 312 321 320 325 325 326 328 329 328 326 327 326 315 314 307 310 314
56 95 119 110 129 155 146 91 86 98 102 96 102 113 117 111 96 119 126 116 127 153 132 132 170 143 118 122 146 221 290 330 338 340 335 329 327 331 329 331 333 335 336 335 334 333 333 331 329 324 320 318 314 315
92 100 108 104 127 153 188 144 109 110 93 87 64 59 55 70 101 168 159 148 134 171 191 195 182 163 134 71 35 7 351 341 339 340 341 342 344 343 342 346 350 348 345 342 339 335 332 330 328 326 323 320 319 319